Regional Weather Roundup
Issued by NWS

Home | Current Version | Previous Version | Graphics & Text | Print | Product List | Glossary On
Versions: 1 2 3 4 5 6 7 8 9 10 11 12 13 14 15 16 17 18 19 20 21 22 23 24 25 26 27 28 29 30 31 32 33 34 35 36 37 38 39 40 41 42 43 44 45 46 47 48 49 50
117
ASUS43 KOAX 290210
RWRNE

WEATHER ROUNDUP FOR NEBRASKA
NATIONAL WEATHER SERVICE OMAHA NE
900 PM CDT WED SEP 28 2016

NOTES: SATELLITE DATA IS BEING USED TO AUGMENT CLOUD COVER ABOVE
       12000 FEET.
       "FAIR" INDICATES FEW OR NO CLOUDS BELOW 12,000 FEET WITH NO
       SIGNIFICANT WEATHER AND/OR OBSTRUCTIONS TO VISIBILITY.

  * THESE STATIONS DO NOT REPORT WEATHER SUCH AS RAIN...SNOW OR FOG.

NEZ001>004-019>022-054>056-290300-
NEBRASKA PANHANDLE

CITY           SKY/WX    TMP DP  RH WIND       PRES   REMARKS
SCOTTSBLUFF    CLEAR     61  46  57 E7        30.29R
ALLIANCE       CLEAR     59  45  59 E9        30.31R
CHADRON        CLEAR     63  45  51 E7        30.28R
KIMBALL        CLEAR     60  39  45 E10       30.35R HAZE
SIDNEY         CLEAR     57  36  45 SE8       30.33R
$$

NEZ057>060-069>072-079>082-290300-
SOUTHWEST NEBRASKA

CITY           SKY/WX    TMP DP  RH WIND       PRES   REMARKS
NORTH PLATTE   CLEAR     52  36  54 E5        30.31R
IMPERIAL       CLEAR     59  39  47 E9        30.30R
LEXINGTON      CLEAR     52  42  70 E8        30.31R
MCCOOK         CLEAR     60  39  45 E7        30.29R
OGALLALA       CLEAR     62  42  46 E7        30.31R HAZE
$$

NEZ005>010-023>029-035>040-094-290300-
NORTH CENTRAL NEBRASKA

CITY           SKY/WX    TMP DP  RH WIND       PRES   REMARKS
VALENTINE      CLEAR     53  40  61 E6        30.33R
AINSWORTH      CLEAR     51  46  82 E7        30.33R
BROKEN BOW     CLEAR     54  44  69 CALM      30.32R
O`NEILL        CLEAR     51  43  73 E5        30.34R
ORD            CLEAR     55  41  59 NE5       30.31R
THEDFORD       CLEAR     54  31  41 CALM      30.34R
$$

NEZ041-046>049-061>064-073>077-083>087-290300-
SOUTH CENTRAL NEBRASKA

CITY           SKY/WX    TMP DP  RH WIND       PRES   REMARKS
GRAND ISLAND   CLEAR     52  43  71 NE6       30.31R
AURORA         CLEAR     51  44  79 NE6       30.31R
HASTINGS       CLEAR     55  42  61 E5        30.32R
HEBRON         CLEAR     55  43  65 NE3       30.29R
HOLDREGE       CLEAR     55  44  66 E8        30.30R
KEARNEY *      CLEAR     54  39  58 NE5       30.31R
YORK           CLEAR     52  45  76 NE7       30.31R
$$

NEZ011>018-030>034-042>045-290300-
NORTHEAST NEBRASKA

CITY           SKY/WX    TMP DP  RH WIND       PRES   REMARKS
NORFOLK        CLEAR     54  43  66 E3        30.32R
ALBION         CLEAR     54  43  66 NE8       30.32R
BLAIR          CLEAR     55  47  76 N7        30.30R
FREMONT        CLEAR     55  45  68 NE3       30.31R
TEKAMAH        CLEAR     49  45  86 N7        30.31R
WAYNE          CLEAR     49  45  87 NE5       30.33R
$$

NEZ050>053-065>068-078-088>093-290300-
SOUTHEAST NEBRASKA

CITY           SKY/WX    TMP DP  RH WIND       PRES   REMARKS
LINCOLN        CLEAR     53  46  77 NE7       30.32R
OMAHA EPPLEY   PTCLDY    54  47  77 N6        30.29R
BEATRICE       CLEAR     54  46  75 NE7       30.30R
FALLS CITY     MOCLDY    56  49  77 N3        30.26R
NEBRASKA CITY  CLEAR     55  43  64 N6        30.28R
PLATTSMOUTH    PTCLDY    55  44  67 N5        30.29R
$$

NEZ044-045-051>053-067-290300-
OMAHA AREA

CITY           SKY/WX    TMP DP  RH WIND       PRES   REMARKS
OMAHA EPPLEY   PTCLDY    54  47  77 N6        30.29R
BLAIR          CLEAR     55  47  76 N7        30.30R
FREMONT        CLEAR     55  45  68 NE3       30.31R
MILLARD        CLEAR     58  47  66 CALM      30.29R
OFFUTT AFB     PTCLDY    57  47  71 N7        30.28R
PLATTSMOUTH    PTCLDY    55  44  67 N5        30.29R
WAHOO          FAIR      52  46  79 N6        30.30R
$$




USA.gov is the U.S. government's official web portal to all federal, state and local government web resources and services.